STARLINK-33811, 63504

Orbit data source: Space-Track

STARLINK-33811, 63504 is a payload satellite owned by SpaceX/Seattle (US) in LEO that was launched on Mon, 07 Apr 2025 UTC via an FALCON 9 launch vehicle from the Air Force Western Test Range (AFWTR). Payload-class satellites include a variety of spacecraft equipped with specific instruments for various scientific and technological missions. These include communications satellites like Starlink; space stations such as the ISS; scientific satellites like the Hubble; Earth observation satellites from companies like Planet Labs, Umbra, and HawkEye 360; GPS; miniature CubeSats for education and research; and military/defense satellites.

Loading next visibility...
Identifier
63504, 2025-071M
Orbit
LEO
Country
Flag of USUS
Related business
Manufacturer
SpaceX/Seattle
Mission
Operational Commercial Communications
Bus & Motor
STARLINK V2MO, Unknown motor
Mass
575 kg wet, ~530 kg dry
Launch date (UTC)
2025-04-07 (7 months ago)
Launch vehicle
FALCON 9
Launch site
Air Force Western Test Range (AFWTR)
Object type
Payload
Rocket body
Debris
Shape & HBR
Box + 2 Pan, 17.7 m
Radar Cross Section
36.964 m², Large (>1 m²)

Expand to show TLE details & history
Last TLE update: 22 hours ago

TLE from 22 hours ago
0 STARLINK-33811
1 63504U 25071M   25307.49175048  .00018969  00000-0  65097-3 0  9991
2 63504  53.1628   6.4394 0000947 103.8194 256.2912 15.30199395 33386
Epoch: 2025-11-03T11:48Z
TLE epoch observation values (Epoch: 2025-11-03T11:48:07.241Z)
Latitude
-0.00004°
Longitude
146.41684°
Altitude
476.271 km
Speed
7.629 km/s
True Right ascension
00h 25m 45s
True Declination
0° 00' 00"
Sunlit
Object was in full shadow at epoch
Visualization orbit readout
Latitude
Unknown
Longitude
Unknown
Altitude
Unknown
Speed
Unknown
Apparent Right ascension
Unknown
Apparent Declination
Unknown
Sunlit
N/A
Visualization observer readout
Local Sidereal Time
05:43:34
Azimuth
Unknown
Elevation
Unknown
Doppler factor
Unknown
Orbital elements
Apogee altitude
476.122 km
Perigee altitude
474.824 km
Semi-major axis
6,853.61 km
Eccentricity
0.00009
Inclination
53.1628°
RAAN
6.4394°
Arg. of periapsis
103.8194°
True anomaly
256.28066°
Mean anomaly
256.2912°
Eccentric anomaly
256.28593°
Mean motion
3.82529 °/min
Orbital period
94.11 mins
BSTAR
0.00065097
Loading maneuver chart data...
Computing Atmospheric mass density...
Loading historical data...
Loading historical data...
Loading historical data...
Loading historical data...
Loading historical data...
Loading historical data...
Loading historical data...

Documentation

Showing up to 5 results
|